Temp
-3 -3 -3 -3 -3 -3 -3 -3 -3 -3 -3 -3 -4 -4 -4 -4 -4 -4 -4 -5 -5 -5 -5 -6 -6 -6 -7 -7 -7 -7 -7 -7 -7 -8 -8 -8 -7 -6 -6 -6 -6 -6 -6 -5 -6
-3 -3 -3 -3 -3 -3 -3 -3 -3 -3 -3 -3 -3 -4 -4 -4 -4 -4 -4 -4 -5 -5 -6 -6 -6 -7 -7 -7 -8 -8 -7 -7 -8 -8 -8 -8 -7 -7 -6 -6 -6 -6 -6 -6 -6
-3 -3 -3 -3 -3 -3 -3 -3 -3 -3 -3 -3 -3 -3 -3 -3 -4 -4 -4 -4 -5 -5 -5 -6 -6 -7 -7 -8 -8 -8 -7 -8 -7 -6 -8 -8 -9 -8 -8 -6 -6 -6 -7 -6 -6
-3 -3 -3 -3 -3 -3 -3 -3 -3 -3 -3 -3 -3 -3 -3 -4 -3 -4 -4 -4 -5 -5 -5 -6 -6 -7 -8 -8 -8 -7 -8 -8 -7 -7 -8 -8 -8 -9 -7 -6 -6 -6 -6 -7 -7
-4 -3 -3 -3 -3 -3 -3 -3 -3 -3 -3 -3 -3 -3 -3 -4 -4 -4 -4 -4 -4 -5 -5 -6 -6 -6 -8 -8 -8 -8 -8 -8 -7 -7 -8 -7 -8 -6 -6 -6 -6 -6 -6 -6 -6
-4 -4 -3 -3 -3 -3 -3 -3 -3 -3 -3 -3 -3 -3 -3 -3 -4 -4 -4 -4 -4 -5 -5 -5 -6 -6 -8 -8 -8 -7 -7 -7 -8 -7 -7 -8 -7 -7 -6 -6 -6 -6 -6 -6 -6
-4 -4 -4 -3 -3 -3 -3 -3 -3 -3 -3 -3 -3 -3 -3 -3 -4 -4 -4 -4 -5 -5 -5 -5 -5 -6 -6 -7 -6 -7 -8 -7 -8 -8 -7 -8 -8 -7 -7 -6 -6 -6 -6 -6 -6
-5 -4 -4 -3 -3 -3 -3 -3 -3 -3 -3 -3 -3 -3 -3 -3 -3 -4 -4 -4 -5 -5 -5 -5 -6 -6 -6 -6 -7 -7 -7 -7 -7 -8 -7 -8 -8 -7 -7 -7 -6 -6 -6 -6 -6
-5 -5 -4 -4 -3 -3 -3 -3 -3 -3 -3 -3 -3 -3 -3 -3 -3 -4 -4 -4 -5 -5 -5 -5 -6 -6 -6 -7 -7 -7 -6 -7 -7 -8 -7 -8 -8 -7 -7 -7 -7 -6 -6 -6 -6
-6 -5 -5 -4 -4 -4 -3 -3 -3 -3 -3 -4 -4 -3 -4 -3 -3 -4 -4 -5 -5 -5 -5 -5 -6 -6 -6 -8 -6 -6 -6 -6 -7 -8 -8 -8 -7 -7 -8 -8 -7 -7 -7 -7 -6
-7 -6 -6 -5 -4 -4 -4 -4 -4 -4 -4 -3 -3 -3 -3 -3 -4 -4 -4 -4 -5 -5 -5 -6 -5 -5 -8 -7 -7 -6 -6 -6 -7 -7 -8 -7 -8 -7 -8 -9 -8 -7 -7 -7 -7
-8 -7 -6 -6 -5 -5 -4 -4 -4 -3 -3 -3 -4 -4 -4 -4 -4 -4 -4 -4 -5 -5 -5 -5 -5 -6 -7 -7 -7 -7 -7 -7 -7 -7 -8 -7 -7 -8 -8 -9 -9 -8 -8 -7 -7
-9 -8 -7 -7 -6 -5 -5 -4 -4 -4 -4 -4 -4 -4 -4 -4 -4 -4 -4 -4 -5 -5 -5 -5 -6 -6 -6 -6 -6 -7 -7 -7 -7 -7 -8 -7 -7 -7 -8 -8 -8 -9 -8 -8 -8
-9 -9 -8 -7 -7 -6 -5 -5 -5 -4 -4 -4 -4 -4 -4 -4 -4 -4 -4 -4 -4 -5 -5 -5 -6 -5 -5 -5 -6 -7 -7 -7 -7 -7 -7 -7 -6 -7 -8 -7 -7 -9 -9 -8 -8
-9 -9 -9 -8 -7 -7 -6 -5 -5 -5 -5 -5 -4 -4 -4 -4 -4 -4 -4 -4 -4 -4 -4 -5 -5 -5 -5 -6 -7 -7 -7 -7 -7 -7 -6 -7 -7 -6 -7 -8 -8 -8 -9 -9 -8
-9 -9 -9 -9 -8 -7 -7 -6 -6 -5 -5 -5 -3 -4 -4 -4 -4 -4 -4 -4 -4 -4 -5 -7 -5 -5 -5 -6 -7 -8 -7 -8 -8 -7 -6 -7 -6 -6 -7 -7 -8 -8 -8 -8 -8
-9 -9 -9 -9 -8 -8 -7 -7 -6 -6 -6 -6 -4 -4 -4 -4 -4 -4 -4 -3 -3 -4 -4 -4 -5 -5 -5 -7 -7 -6 -8 -7 -7 -7 -6 -6 -7 -6 -7 -7 -7 -8 -7 -7 -8
-9 -9 -9 -9 -9 -9 -8 -7 -7 -6 -8 -7 -5 -5 -5 -5 -5 -4 -4 -4 -4 -4 -5 -5 -5 -4 -5 -5 -6 -6 -7 -6 -6 -5 -5 -6 -7 -7 -7 -6 -6 -6 -7 -8 -9
-9 -9 -9 -9 -9 -9 -9 -8 -6 -7 -8 -8 -6 -5 -5 -5 -5 -4 -4 -4 -4 -4 -5 -7 -7 -6 -5 -5 -7 -7 -7 -7 -6 -6 -6 -6 -7 -6 -6 -6 -6 -6 -6 -7 -7
-10 -9 -9 -9 -9 -9 -9 -8 -7 -7 -8 -8 -8 -6 -6 -5 -5 -5 -4 -4 -4 -5 -6 -7 -7 -7 -7 -6 -7 -7 -7 -8 -7 -7 -6 -6 -7 -7 -7 -6 -5 -6 -6 -6 -7
-10 -10 -9 -9 -9 -9 -8 -8 -8 -8 -10 -7 -7 -9 -8 -8 -8 -7 -5 -5 -5 -5 -5 -7 -7 -7 -7 -5 -6 -6 -6 -7 -7 -6 -6 -6 -6 -7 -7 -7 -6 -6 -6 -6 -6
-10 -10 -10 -10 -9 -9 -8 -8 -9 -9 -8 -8 -7 -9 -9 -9 -8 -8 -8 -6 -6 -5 -5 -5 -7 -7 -7 -6 -6 -8 -8 -8 -7 -7 -7 -7 -7 -8 -7 -7 -7 -6 -6 -6 -7
-11 -10 -11 -11 -9 -9 -9 -9 -9 -9 -9 -8 -8 -8 -8 -9 -9 -9 -8 -8 -7 -6 -6 -6 -6 -7 -8 -8 -7 -7 -8 -8 -8 -8 -7 -7 -7 -8 -8 -8 -7 -7 -7 -7 -7
-11 -11 -11 -11 -11 -10 -9 -9 -9 -9 -9 -10 -9 -9 -9 -8 -9 -9 -9 -9 -9 -6 -7 -6 -7 -6 -7 -8 -8 -7 -7 -8 -8 -8 -7 -8 -8 -8 -8 -8 -7 -7 -7 -7 -7
-12 -12 -11 -11 -11 -11 -11 -10 -10 -10 -9 -10 -9 -9 -9 -9 -8 -9 -9 -9 -9 -7 -7 -7 -6 -7 -7 -8 -8 -8 -8 -8 -8 -8 -8 -8 -8 -8 -9 -9 -7 -7 -7 -7 -7
-13 -12 -11 -11 -11 -10 -11 -10 -10 -10 -10 -9 -9 -9 -9 -9 -10 -10 -9 -9 -8 -8 -7 -7 -7 -7 -9 -8 -8 -8 -8 -8 -8 -8 -9 -9 -8 -9 -9 -9 -8 -7 -7 -7 -6
-14 -13 -12 -12 -12 -12 -12 -11 -11 -11 -11 -11 -10 -10 -10 -10 -10 -10 -10 -9 -10 -8 -8 -8 -8 -8 -9 -9 -8 -9 -9 -9 -9 -9 -9 -9 -9 -9 -9 -7 -7 -7 -7 -7 -7
Height
5904 5906 5907 5907 5909 5910 5911 5911 5911 5911 5912 5912 5912 5913 5913 5915 5916 5917 5917 5919 5920 5921 5923 5926 5928 5931 5934 5936 5939 5939 5951 5950 5947 5945 5941 5938 5932 5930 5929 5927 5925 5924 5924 5923 5921
5902 5904 5905 5906 5907 5909 5910 5911 5912 5912 5913 5913 5914 5914 5914 5915 5917 5918 5919 5920 5920 5922 5923 5925 5929 5932 5935 5938 5939 5938 5952 5947 5944 5944 5942 5940 5934 5932 5932 5930 5928 5927 5926 5925 5924
5900 5902 5903 5905 5906 5907 5909 5911 5911 5913 5914 5914 5915 5915 5916 5917 5918 5920 5921 5922 5922 5923 5924 5926 5929 5933 5935 5938 5942 5946 5947 5946 5942 5942 5944 5940 5937 5940 5937 5933 5931 5930 5928 5927 5927
5896 5898 5901 5903 5905 5906 5908 5909 5911 5912 5913 5915 5915 5916 5917 5918 5921 5921 5922 5923 5924 5925 5926 5927 5930 5933 5937 5940 5941 5947 5943 5944 5942 5943 5945 5945 5941 5938 5936 5934 5932 5931 5931 5930 5929
5893 5895 5897 5900 5902 5904 5906 5908 5910 5912 5913 5914 5915 5916 5917 5919 5920 5921 5923 5924 5925 5926 5927 5929 5931 5932 5939 5942 5941 5948 5944 5943 5943 5943 5947 5943 5941 5938 5936 5934 5934 5933 5933 5932 5932
5888 5892 5894 5896 5899 5902 5904 5906 5908 5910 5912 5913 5914 5916 5917 5919 5920 5922 5924 5925 5927 5928 5929 5930 5932 5933 5938 5941 5944 5943 5943 5944 5944 5943 5944 5945 5942 5940 5939 5936 5935 5935 5934 5934 5933
5882 5887 5890 5893 5895 5898 5901 5904 5906 5908 5910 5912 5913 5915 5917 5920 5920 5922 5924 5926 5928 5929 5929 5931 5932 5934 5937 5939 5940 5943 5945 5946 5947 5945 5946 5945 5944 5942 5940 5938 5937 5936 5935 5935 5935
5877 5881 5885 5888 5891 5894 5897 5901 5904 5906 5908 5910 5912 5914 5917 5918 5920 5921 5924 5926 5928 5929 5930 5931 5933 5934 5936 5939 5941 5943 5948 5950 5948 5948 5947 5945 5941 5941 5942 5940 5938 5938 5937 5936 5936
5871 5875 5879 5883 5887 5890 5893 5897 5900 5903 5905 5908 5910 5912 5915 5918 5919 5921 5923 5925 5927 5929 5930 5931 5932 5934 5937 5938 5944 5946 5952 5954 5949 5948 5948 5947 5940 5942 5942 5940 5939 5939 5938 5938 5937
5865 5868 5872 5877 5882 5885 5888 5892 5896 5899 5902 5905 5908 5912 5914 5917 5918 5920 5922 5924 5926 5928 5929 5931 5932 5933 5935 5940 5949 5951 5952 5953 5950 5949 5949 5951 5944 5944 5942 5940 5939 5939 5939 5939 5938
5858 5862 5866 5870 5875 5879 5883 5887 5892 5894 5898 5901 5905 5907 5912 5914 5916 5918 5920 5922 5924 5926 5928 5929 5931 5933 5936 5940 5946 5949 5950 5951 5951 5948 5948 5952 5947 5943 5942 5941 5939 5939 5938 5939 5939
5853 5855 5859 5862 5868 5873 5877 5880 5885 5891 5893 5897 5900 5904 5908 5910 5913 5916 5918 5921 5922 5925 5926 5928 5930 5932 5934 5939 5940 5941 5944 5947 5949 5948 5947 5951 5952 5942 5942 5943 5940 5939 5938 5937 5937
5847 5849 5852 5856 5859 5866 5870 5875 5879 5883 5888 5891 5896 5900 5904 5907 5909 5913 5915 5918 5920 5922 5924 5926 5930 5930 5932 5934 5936 5939 5943 5947 5947 5945 5945 5949 5951 5949 5943 5942 5943 5938 5937 5937 5937
5842 5843 5846 5849 5854 5858 5862 5868 5873 5878 5882 5886 5890 5894 5898 5902 5905 5908 5911 5915 5917 5919 5922 5924 5926 5927 5929 5931 5932 5939 5940 5943 5944 5944 5945 5945 5949 5945 5943 5940 5940 5939 5933 5935 5934
5835 5838 5839 5842 5847 5850 5856 5859 5865 5872 5877 5881 5883 5888 5893 5898 5902 5905 5908 5910 5914 5916 5919 5922 5923 5924 5926 5928 5931 5941 5937 5938 5940 5942 5946 5944 5946 5946 5942 5940 5938 5937 5938 5933 5929
5827 5831 5833 5836 5839 5843 5847 5851 5857 5864 5866 5871 5876 5883 5886 5892 5895 5899 5902 5906 5910 5911 5915 5918 5919 5921 5924 5926 5929 5930 5932 5933 5935 5939 5942 5942 5944 5946 5944 5941 5940 5938 5935 5932 5928
5819 5823 5826 5829 5832 5835 5839 5843 5849 5851 5863 5864 5871 5876 5881 5886 5890 5893 5898 5901 5904 5908 5911 5914 5915 5917 5920 5924 5924 5925 5929 5933 5937 5937 5939 5939 5939 5941 5940 5936 5933 5935 5932 5930 5927
5809 5814 5817 5821 5824 5827 5829 5833 5837 5847 5854 5859 5863 5869 5874 5880 5883 5888 5891 5895 5899 5904 5907 5908 5911 5912 5916 5918 5920 5921 5929 5934 5937 5938 5937 5931 5933 5933 5929 5928 5928 5927 5927 5927 5925
5799 5803 5808 5812 5815 5818 5820 5820 5833 5842 5847 5852 5857 5861 5867 5872 5877 5880 5884 5890 5894 5899 5903 5906 5909 5909 5909 5913 5917 5919 5920 5929 5931 5932 5932 5932 5927 5925 5924 5923 5922 5922 5921 5921 5921
5788 5792 5797 5802 5805 5808 5809 5817 5824 5832 5838 5841 5847 5854 5859 5865 5868 5871 5877 5884 5887 5892 5898 5905 5907 5908 5906 5908 5912 5915 5919 5921 5923 5926 5930 5929 5925 5925 5916 5918 5919 5918 5917 5917 5917
5777 5781 5785 5789 5793 5797 5803 5814 5817 5821 5825 5831 5839 5848 5852 5858 5863 5867 5871 5877 5880 5885 5890 5895 5900 5903 5900 5901 5905 5909 5910 5915 5921 5925 5926 5927 5924 5915 5913 5913 5913 5913 5913 5913 5913
5764 5770 5772 5777 5783 5790 5795 5805 5809 5813 5815 5822 5827 5833 5844 5852 5857 5859 5864 5869 5872 5878 5882 5888 5891 5897 5895 5897 5901 5905 5906 5908 5912 5916 5918 5919 5921 5909 5908 5910 5909 5908 5908 5908 5908
5751 5754 5764 5767 5773 5779 5787 5789 5795 5802 5807 5812 5819 5826 5831 5838 5848 5852 5856 5864 5864 5869 5873 5880 5884 5890 5893 5894 5892 5895 5901 5905 5908 5909 5913 5916 5918 5907 5903 5905 5904 5904 5904 5904 5903
5736 5743 5748 5755 5761 5766 5772 5778 5786 5792 5798 5803 5809 5817 5823 5828 5835 5844 5849 5857 5857 5861 5866 5870 5876 5880 5888 5890 5891 5889 5893 5896 5900 5904 5907 5907 5909 5902 5899 5898 5898 5899 5899 5898 5898
5718 5727 5729 5740 5749 5755 5761 5769 5775 5781 5789 5794 5798 5804 5812 5819 5828 5834 5843 5848 5847 5853 5856 5863 5867 5872 5878 5887 5888 5889 5887 5890 5893 5895 5898 5904 5905 5906 5889 5886 5892 5892 5892 5892 5891
5700 5707 5715 5724 5735 5741 5746 5754 5764 5772 5778 5784 5790 5798 5804 5810 5821 5828 5835 5840 5839 5844 5850 5855 5859 5864 5870 5876 5880 5882 5885 5888 5888 5890 5890 5893 5895 5897 5885 5880 5886 5885 5883 5884 5882
5683 5691 5701 5711 5720 5728 5737 5745 5755 5762 5768 5774 5780 5789 5795 5804 5811 5815 5822 5833 5831 5836 5842 5847 5853 5855 5860 5868 5872 5869 5873 5877 5880 5883 5884 5884 5888 5886 5871 5873 5878 5877 5874 5874 5873
Wind_Speed
14 12 10 8 5 6 7 10 9 8 7 7 8 8 9 10 10 10 11 11 12 12 11 12 14 14 13 17 29 29 14 5 6 6 4 10 8 10 11 13 16 17 15 16 15
19 16 13 11 8 7 9 10 11 10 9 8 8 8 8 9 9 11 13 15 15 15 14 15 16 15 13 15 19 17 4 2 6 10 3 8 8 12 10 12 14 17 17 17 16
22 19 16 14 11 9 10 12 11 11 10 9 8 7 7 7 8 12 13 15 16 18 19 20 22 18 13 9 14 9 5 5 4 6 6 10 12 12 11 10 12 13 16 16 16
25 23 20 17 14 11 12 13 13 12 11 11 10 9 9 8 8 10 12 12 13 15 19 23 22 21 14 8 11 6 5 9 2 4 11 7 12 8 9 8 9 9 10 11 12
28 27 24 21 18 15 14 16 15 13 12 11 11 11 11 11 9 11 10 10 10 11 14 18 19 20 11 8 9 6 4 5 3 1 11 8 5 5 4 7 8 7 5 6 6
31 29 28 24 22 19 16 18 18 16 14 12 12 12 12 11 10 11 12 10 9 10 10 12 14 12 15 10 9 7 6 3 6 1 3 6 6 7 4 4 6 6 5 5 5
32 32 30 29 26 23 20 19 21 19 17 15 14 13 13 11 11 10 12 13 11 11 11 10 11 13 12 11 10 10 7 3 8 4 6 3 8 2 6 4 2 4 4 5 6
33 34 33 31 29 27 24 21 22 23 21 19 17 15 14 13 12 11 11 13 15 13 11 10 10 9 11 8 8 8 9 3 4 6 1 11 12 12 3 6 5 3 4 4 4
31 34 35 34 32 31 28 25 25 25 24 22 20 18 16 14 13 11 11 12 13 13 13 12 10 10 9 9 4 4 4 12 9 8 5 5 9 16 10 2 4 5 5 3 2
30 32 34 36 34 33 32 29 27 27 27 26 24 21 19 16 13 12 11 11 11 11 11 10 11 11 11 9 6 8 7 12 10 8 10 6 14 19 14 8 4 5 5 4 2
29 31 33 36 37 35 35 32 31 32 30 30 27 24 18 18 16 13 12 12 11 10 10 9 9 6 11 13 13 12 14 12 12 10 9 8 12 19 9 6 4 6 6 4 4
27 30 33 35 39 37 37 37 34 31 32 31 30 26 23 23 20 16 15 13 12 12 11 9 7 7 11 14 15 15 13 11 13 14 12 11 10 12 13 6 10 6 7 7 7
26 28 31 35 38 40 39 40 37 35 35 35 33 31 28 26 24 21 18 17 16 14 12 11 7 10 11 11 13 15 11 9 12 14 10 13 15 17 16 9 15 10 11 11 8
27 26 29 33 37 39 41 41 40 37 37 38 35 33 32 30 28 25 23 21 19 17 16 14 13 11 10 8 11 12 14 16 13 13 9 11 12 21 15 15 11 15 18 16 17
31 28 28 31 34 39 38 41 41 37 39 38 39 37 35 32 28 26 24 22 19 19 17 12 14 13 11 10 13 8 23 13 11 10 12 14 13 12 19 18 15 14 19 20 25
33 31 29 29 32 37 39 41 42 41 42 42 42 38 38 35 33 30 28 25 24 23 20 17 18 15 12 12 17 21 23 14 12 11 15 16 15 12 11 17 17 19 23 26 26
36 33 30 28 32 34 39 41 42 46 42 42 42 40 38 36 36 35 31 29 27 23 21 19 16 17 16 18 18 18 14 5 5 9 10 16 16 18 19 21 22 23 24 26 28
37 37 33 30 30 35 39 43 46 44 36 40 42 39 41 38 38 36 35 32 29 25 22 23 22 21 16 17 13 15 16 10 10 9 17 23 21 17 21 21 19 22 26 30 25
40 39 39 35 32 35 40 46 45 43 37 30 41 42 39 41 40 39 38 35 31 28 24 22 20 21 21 18 18 14 21 16 18 16 15 12 14 20 18 18 20 19 22 25 24
42 42 42 40 37 37 40 43 42 41 40 41 36 39 41 40 43 44 41 38 36 32 28 18 21 24 21 21 23 23 17 17 14 14 15 11 20 15 24 17 15 17 20 23 24
44 43 43 42 43 41 38 38 40 41 37 46 42 26 32 35 37 38 41 38 39 37 35 29 25 25 26 26 23 25 25 21 15 14 13 14 16 25 28 23 17 16 18 19 20
47 46 46 44 45 43 36 35 38 41 46 43 46 42 26 32 37 39 36 39 37 37 37 36 27 27 26 23 22 22 20 22 19 19 18 18 12 21 33 23 20 22 21 20 19
51 51 46 45 46 44 41 40 41 42 46 46 45 47 49 36 33 37 37 31 37 37 37 36 33 28 22 23 28 29 21 21 21 19 19 16 14 28 32 30 24 25 24 22 21
52 53 51 50 46 47 47 44 42 43 44 44 46 44 46 48 40 31 34 28 37 38 37 37 34 36 26 21 18 23 24 23 22 23 19 20 18 29 34 34 30 25 23 23 22
54 51 59 56 48 49 46 46 43 43 43 46 49 52 48 48 43 36 29 35 44 39 41 39 39 34 32 26 16 21 22 23 25 24 25 19 19 19 35 40 30 31 28 25 26
54 58 59 58 55 54 53 51 47 44 45 48 50 49 50 48 34 31 33 36 43 42 40 37 38 36 28 30 28 25 24 23 24 24 25 23 23 26 42 50 32 32 33 32 31
54 55 56 58 58 56 52 48 43 44 46 46 49 47 49 45 42 36 36 33 42 40 37 37 35 36 34 27 27 35 30 29 28 27 27 25 22 30 47 42 31 32 34 34 33
Wind_Direction
222 225 224 223 217 200 187 168 172 169 161 157 156 157 158 160 160 153 148 145 142 144 147 149 142 141 116 95 94 89 90 78 80 88 56 48 72 89 88 87 90 86 91 88 84
222 221 225 223 222 204 194 179 172 170 166 162 160 158 156 148 139 137 138 137 137 133 139 150 141 135 120 99 103 70 193 125 120 98 154 117 86 86 89 95 96 95 90 88 84
223 222 221 222 222 211 197 186 178 172 169 166 165 159 156 146 141 130 138 140 137 133 130 131 132 132 130 130 114 86 178 106 103 110 105 101 82 82 57 91 97 94 96 91 87
225 223 221 220 221 216 200 193 186 179 175 173 170 164 164 162 152 142 142 141 138 136 132 128 130 128 124 126 123 80 166 132 161 93 120 128 88 129 157 107 105 100 96 96 95
229 224 221 220 218 217 209 197 193 188 183 179 175 172 166 160 161 151 149 147 143 137 138 133 133 128 137 160 127 139 155 128 142 99 137 110 134 88 103 107 112 118 109 103 95
231 228 224 221 219 217 212 204 197 195 192 188 181 178 175 165 162 150 148 153 150 145 142 134 137 136 158 159 140 185 137 135 151 109 115 155 105 71 95 135 125 120 115 119 97
233 229 227 222 219 218 215 211 203 199 197 194 188 183 179 174 166 154 149 148 150 153 154 152 148 138 139 153 148 148 107 130 164 169 78 223 86 260 72 62 115 117 120 120 113
233 232 228 225 220 218 217 215 209 204 201 199 194 189 187 178 170 163 153 154 154 156 155 154 148 133 134 148 131 147 148 202 167 182 90 191 156 316 327 86 58 49 62 110 132
233 231 230 227 222 219 217 217 212 208 206 204 198 194 189 184 179 171 160 159 158 158 157 150 145 142 148 145 141 195 150 191 225 173 171 202 165 303 289 20 67 53 34 37 104
236 230 229 227 224 222 218 217 216 211 209 208 204 198 194 194 187 184 175 169 169 168 165 158 154 159 154 174 142 246 179 196 219 180 203 164 206 288 287 302 332 22 28 30 352
238 233 227 227 223 223 220 217 216 215 211 212 210 206 209 199 199 195 191 190 189 185 176 178 175 165 194 194 202 191 189 205 197 227 183 195 258 288 293 245 330 333 347 2 22
241 235 229 223 224 221 222 219 219 220 216 213 212 209 209 208 207 205 205 205 205 197 198 199 205 184 192 218 209 191 191 198 198 216 188 200 220 243 284 248 275 296 310 311 328
246 239 231 226 220 221 222 221 220 219 219 216 213 213 212 212 212 207 207 209 208 211 205 202 233 206 207 205 191 193 188 220 200 210 206 197 231 229 268 275 257 273 273 279 290
247 247 234 228 224 219 222 221 221 221 221 222 218 214 215 215 216 214 213 210 212 212 212 211 214 220 223 211 185 207 188 201 196 215 243 240 222 238 246 285 273 261 279 269 269
244 248 244 229 226 223 219 221 219 220 224 230 221 216 217 219 220 218 218 219 217 217 217 217 218 223 228 200 177 192 234 219 216 219 197 246 238 252 231 251 265 245 253 269 278
239 244 248 238 226 225 223 220 218 218 220 226 224 222 221 219 220 214 219 220 219 220 212 207 221 221 219 203 196 221 219 225 225 224 237 231 232 226 255 265 251 266 281 277 279
238 236 246 244 233 225 224 224 219 217 214 225 226 224 224 223 225 224 224 224 224 224 223 226 222 227 220 206 212 218 205 205 232 237 235 228 214 215 226 231 239 225 233 256 266
236 236 237 245 239 230 224 223 221 215 212 221 225 224 225 224 226 223 225 222 222 219 223 225 226 232 229 224 220 213 197 190 250 227 244 260 262 248 236 253 257 250 244 240 245
237 232 236 237 239 234 229 224 220 220 220 217 221 223 222 221 225 229 227 226 225 225 214 228 220 237 230 215 214 213 206 212 231 233 211 260 264 244 254 256 256 256 251 249 254
239 234 232 235 235 234 233 227 220 218 218 217 221 220 224 223 225 228 226 227 227 221 211 218 217 226 222 219 216 199 231 216 221 213 239 246 242 258 263 259 258 254 251 250 247
236 237 230 231 235 233 237 233 227 215 221 220 216 211 218 216 219 221 226 225 225 224 216 211 206 225 229 230 226 218 221 208 210 241 229 248 274 242 268 281 275 266 258 256 256
230 234 229 230 231 234 231 234 227 223 223 219 218 206 215 213 215 223 226 225 227 223 222 220 225 198 234 239 231 221 237 227 227 235 226 215 245 269 272 276 272 272 269 265 264
230 229 232 229 230 232 227 225 225 221 223 216 217 216 212 205 214 221 215 219 228 222 222 219 217 213 221 228 224 221 216 227 235 223 223 234 249 258 267 273 260 262 264 266 271
230 227 228 230 226 227 227 225 223 224 220 217 215 213 216 217 210 211 216 216 222 220 220 220 221 223 221 231 238 235 222 225 218 230 240 245 250 274 279 271 266 259 263 264 264
228 223 225 222 221 226 226 230 222 221 220 220 217 212 214 216 217 218 207 221 226 217 221 222 227 225 207 214 240 239 242 230 232 232 231 233 241 262 269 277 269 270 269 268 270
226 224 221 221 223 225 220 222 221 218 219 221 220 218 218 212 211 221 205 223 231 224 222 223 227 223 218 217 214 236 219 238 238 248 246 247 252 255 258 261 269 271 270 271 273
224 223 221 218 219 220 222 225 222 219 219 220 221 217 218 217 207 203 206 215 236 225 225 229 226 226 224 223 230 236 231 235 240 238 250 251 254 244 257 270 279 275 274 275 277